Theta_e
344 342 340 339 339 337 339 341 341 342 343 345 348 349 349 348 348 349 347 345 345 346
336 335 334 334 334 333 334 334 335 337 338 340 341 342 344 347 347 347 347 344 346 346
330 330 330 329 328 329 330 330 329 330 331 333 335 337 339 340 342 344 346 346 346 345
326 326 326 325 325 325 325 324 324 324 324 325 326 331 332 333 335 335 337 341 343 342
323 322 322 321 321 321 320 321 321 320 319 320 321 325 324 322 323 325 326 332 334 338
318 318 318 319 319 319 319 319 319 318 317 317 319 321 321 321 320 321 321 324 326 330
316 316 317 318 318 318 318 317 317 318 317 317 318 320 321 321 321 321 322 322 323 325
316 317 318 318 318 318 318 317 317 316 316 317 319 319 319 319 320 322 321 321 321 323
316 317 318 317 317 317 316 316 314 314 314 314 315 319 319 319 315 316 320 319 321 323
315 316 316 316 314 313 312 312 311 310 311 311 312 315 315 317 311 311 315 316 318 323
315 314 314 312 310 310 310 309 309 309 309 309 310 313 314 315 310 309 310 311 313 317
313 312 312 311 310 309 308 308 307 307 307 307 308 311 312 311 309 309 309 311 312 314
313 311 310 310 310 309 308 307 307 306 305 307 306 308 310 310 308 306 307 309 311 313
314 312 311 310 310 309 308 307 306 305 305 305 306 307 309 309 308 307 307 308 309 312
Wind_Speed
6 6 6 8 6 5 5 5 8 8 8 9 7 3 3 3 4 5 5 9 8 6
8 10 7 8 6 5 6 7 8 8 8 9 8 8 7 4 4 3 5 7 7 7
8 8 7 7 8 7 7 8 8 8 8 8 8 9 7 5 6 5 4 4 6 6
6 7 7 7 7 7 7 8 8 8 8 8 9 8 7 7 8 8 7 6 6 7
7 8 8 7 5 7 7 7 7 7 8 8 8 7 8 8 8 8 9 9 9 8
8 6 4 4 5 6 6 7 8 8 8 8 8 7 8 8 9 9 9 9 9 9
2 1 2 5 5 6 5 6 7 6 7 8 7 6 8 9 10 10 10 10 9 9
3 3 4 6 6 6 6 5 6 8 8 8 6 8 9 9 10 8 9 11 11 9
4 5 5 5 6 6 7 8 7 7 8 7 6 14 17 15 9 10 10 10 10 10
4 5 5 5 7 8 9 7 7 8 8 8 7 16 18 20 9 10 9 10 10 10
3 4 5 7 6 6 5 7 6 7 7 7 8 18 19 21 11 10 11 11 12 10
3 4 4 5 5 4 4 5 5 5 7 8 9 17 19 16 10 11 12 11 11 12
4 4 3 3 3 2 2 4 5 6 6 10 9 14 18 17 9 11 11 12 11 14
2 3 1 3 2 3 4 4 5 6 6 6 8 10 17 18 10 9 9 8 8 9
Wind_Direction
36 64 55 45 36 38 30 30 11 22 14 10 7 347 283 252 265 258 246 245 229 226
34 49 49 41 41 28 22 24 15 14 17 6 8 7 355 320 290 256 258 260 241 236
31 40 39 36 39 26 28 27 17 11 7 7 2 357 2 347 342 332 301 272 267 243
27 36 41 41 33 27 29 25 25 14 9 6 357 355 3 360 354 346 335 333 297 283
38 29 27 27 30 32 30 27 23 15 13 2 1 9 11 353 341 337 332 328 326 312
37 28 16 18 33 33 31 27 24 23 10 1 0 9 356 337 331 324 315 311 311 310
70 71 26 30 29 32 26 27 25 12 6 1 352 358 346 335 326 317 317 309 300 296
350 32 38 28 19 16 15 10 14 13 8 358 352 4 353 343 329 320 322 320 308 302
17 23 34 29 20 12 8 12 8 8 2 360 354 353 348 344 334 324 328 330 325 313
30 33 30 38 25 19 21 15 11 10 5 358 347 359 354 349 340 329 333 332 335 334
71 54 45 45 30 24 15 12 8 3 358 353 1 3 360 354 342 340 339 338 335 331
83 59 44 37 17 16 11 8 2 356 358 358 354 1 5 359 350 349 346 341 339 338
88 76 43 6 1 15 14 358 359 1 5 6 355 357 3 6 359 354 350 349 344 341
79 74 13 350 352 350 354 351 358 356 345 348 352 346 0 7 6 357 342 339 338 335